TimeEDT,TemperatureF,Dew PointF,Humidity,Sea Level PressureIn,VisibilityMPH,Wind Direction,Wind SpeedMPH,Gust SpeedMPH,PrecipitationIn,Events,Conditions,WindDirDegrees,DateUTC
12:15 AM,30.2,12.2,47,30.25,10.0,SE,9.2,-,N/A,,Partly Cloudy,130,2013-04-07 04:15:00
12:55 AM,30.2,8.6,40,30.24,10.0,SSE,3.5,-,N/A,,Scattered Clouds,160,2013-04-07 04:55:00
1:15 AM,30.2,12.2,47,30.24,10.0,SE,6.9,-,N/A,,Overcast,130,2013-04-07 05:15:00
1:35 AM,30.2,10.4,44,30.23,10.0,ESE,10.4,-,N/A,,Mostly Cloudy,120,2013-04-07 05:35:00
1:55 AM,32.0,10.4,41,30.22,10.0,SSE,6.9,-,N/A,,Partly Cloudy,150,2013-04-07 05:55:00
2:15 AM,33.8,8.6,35,30.21,10.0,SSE,9.2,-,N/A,,Partly Cloudy,150,2013-04-07 06:15:00
2:35 AM,33.8,8.6,35,30.19,10.0,SE,11.5,-,N/A,,Mostly Cloudy,130,2013-04-07 06:35:00
2:55 AM,35.6,6.8,30,30.19,10.0,SE,15.0,19.6,N/A,,Overcast,130,2013-04-07 06:55:00
3:15 AM,35.6,6.8,30,30.18,10.0,SE,12.7,-,N/A,,Mostly Cloudy,140,2013-04-07 07:15:00
3:35 AM,35.6,6.8,30,30.18,10.0,SE,15.0,20.7,N/A,,Mostly Cloudy,140,2013-04-07 07:35:00
3:55 AM,35.6,6.8,30,30.17,10.0,SSE,11.5,17.3,N/A,,Mostly Cloudy,160,2013-04-07 07:55:00
4:15 AM,33.8,6.8,32,30.17,10.0,SSE,10.4,-,N/A,,Scattered Clouds,150,2013-04-07 08:15:00
4:35 AM,35.6,6.8,30,30.16,10.0,SE,11.5,-,N/A,,Clear,130,2013-04-07 08:35:00
4:55 AM,35.6,6.8,30,30.16,10.0,SE,13.8,18.4,N/A,,Scattered Clouds,130,2013-04-07 08:55:00
5:15 AM,35.6,6.8,30,30.16,10.0,SE,12.7,19.6,N/A,,Mostly Cloudy,130,2013-04-07 09:15:00
5:35 AM,35.6,6.8,30,30.16,10.0,SSE,10.4,-,N/A,,Scattered Clouds,150,2013-04-07 09:35:00
5:55 AM,35.6,6.8,30,30.16,10.0,SSE,11.5,-,N/A,,Mostly Cloudy,150,2013-04-07 09:55:00
6:15 AM,35.6,6.8,30,30.17,10.0,SSE,12.7,-,N/A,,Overcast,150,2013-04-07 10:15:00
6:35 AM,37.4,6.8,28,30.17,10.0,SE,13.8,-,N/A,,Overcast,130,2013-04-07 10:35:00
6:55 AM,37.4,6.8,28,30.17,10.0,ESE,17.3,-,N/A,,Overcast,120,2013-04-07 10:55:00
7:35 AM,37.4,8.6,30,30.16,10.0,SE,17.3,24.2,N/A,,Overcast,130,2013-04-07 11:35:00
7:55 AM,37.4,8.6,30,30.15,10.0,SE,19.6,-,N/A,,Overcast,130,2013-04-07 11:55:00
8:15 AM,37.4,10.4,33,30.14,10.0,ESE,16.1,-,N/A,,Overcast,120,2013-04-07 12:15:00
8:35 AM,37.4,10.4,33,30.13,10.0,ESE,19.6,24.2,N/A,,Overcast,120,2013-04-07 12:35:00
8:55 AM,39.2,12.2,33,30.09,10.0,SE,19.6,24.2,N/A,,Overcast,130,2013-04-07 12:55:00
9:15 AM,39.2,12.2,33,30.10,10.0,SE,19.6,-,N/A,,Overcast,130,2013-04-07 13:15:00
9:35 AM,39.2,14.0,36,30.09,10.0,SE,15.0,25.3,N/A,,Overcast,140,2013-04-07 13:35:00
9:55 AM,39.2,15.8,39,30.08,10.0,ESE,20.7,26.5,N/A,,Mostly Cloudy,120,2013-04-07 13:55:00
10:15 AM,42.8,17.6,36,30.08,10.0,ESE,19.6,24.2,N/A,,Scattered Clouds,110,2013-04-07 14:15:00
10:55 AM,44.6,21.2,39,30.04,10.0,ESE,20.7,26.5,N/A,,Clear,110,2013-04-07 14:55:00
11:15 AM,48.2,21.2,34,30.04,10.0,SE,13.8,24.2,N/A,,Clear,140,2013-04-07 15:15:00
11:35 AM,50.0,21.2,32,30.02,10.0,SE,15.0,-,N/A,,Partly Cloudy,140,2013-04-07 15:35:00
11:55 AM,51.8,19.4,28,30.01,10.0,South,18.4,25.3,N/A,,Partly Cloudy,190,2013-04-07 15:55:00
12:15 PM,51.8,17.6,26,29.99,10.0,South,18.4,23.0,N/A,,Clear,190,2013-04-07 16:15:00
12:35 PM,53.6,17.6,24,29.98,10.0,South,12.7,26.5,N/A,,Partly Cloudy,170,2013-04-07 16:35:00
1:15 PM,55.4,19.4,25,29.96,10.0,South,21.9,33.4,N/A,,Clear,180,2013-04-07 17:15:00
1:35 PM,55.4,19.4,25,29.94,10.0,South,23.0,29.9,N/A,,Clear,180,2013-04-07 17:35:00
1:55 PM,55.4,19.4,25,29.94,10.0,South,17.3,27.6,N/A,,Clear,170,2013-04-07 17:55:00
2:15 PM,57.2,19.4,23,29.92,10.0,SSE,18.4,27.6,N/A,,Clear,160,2013-04-07 18:15:00
2:35 PM,57.2,19.4,23,29.89,10.0,SSE,19.6,28.8,N/A,,Clear,160,2013-04-07 18:35:00
2:55 PM,57.2,17.6,21,29.87,10.0,SSE,17.3,28.8,N/A,,Clear,150,2013-04-07 18:55:00
3:15 PM,57.2,19.4,23,29.87,10.0,SSE,19.6,27.6,N/A,,Clear,160,2013-04-07 19:15:00
3:35 PM,57.2,19.4,23,29.86,10.0,SSE,15.0,19.6,N/A,,Clear,160,2013-04-07 19:35:00
3:55 PM,59.0,21.2,23,29.86,10.0,SSE,12.7,24.2,N/A,,Clear,150,2013-04-07 19:55:00
4:15 PM,57.2,21.2,25,29.89,10.0,SSW,12.7,17.3,N/A,,Scattered Clouds,210,2013-04-07 20:15:00
4:35 PM,57.2,23.0,27,29.90,10.0,WSW,11.5,17.3,N/A,,Overcast,240,2013-04-07 20:35:00
4:55 PM,51.8,33.8,50,29.89,5.0,SSW,11.5,40.3,N/A,,Overcast,200,2013-04-07 20:55:00
5:15 PM,51.8,32.0,47,29.89,10.0,South,11.5,16.1,N/A,,Overcast,190,2013-04-07 21:15:00
5:35 PM,53.6,33.8,47,29.89,10.0,SSE,12.7,-,N/A,,Mostly Cloudy,160,2013-04-07 21:35:00
5:55 PM,55.4,30.2,38,29.88,10.0,South,15.0,20.7,N/A,,Clear,170,2013-04-07 21:55:00
6:15 PM,55.4,30.2,38,29.87,10.0,South,13.8,21.9,N/A,,Clear,170,2013-04-07 22:15:00
6:35 PM,53.6,30.2,41,29.87,10.0,South,16.1,25.3,N/A,,Clear,190,2013-04-07 22:35:00
6:55 PM,53.6,30.2,41,29.87,10.0,South,11.5,23.0,N/A,,Clear,170,2013-04-07 22:55:00
7:15 PM,53.6,30.2,41,29.87,10.0,South,13.8,19.6,N/A,,Clear,170,2013-04-07 23:15:00
7:35 PM,51.8,30.2,44,29.88,10.0,SSE,12.7,20.7,N/A,,Clear,160,2013-04-07 23:35:00
7:55 PM,51.8,30.2,44,29.88,10.0,SSE,12.7,19.6,N/A,,Clear,160,2013-04-07 23:55:00
8:15 PM,48.2,30.2,50,29.88,10.0,SE,15.0,-,N/A,,Clear,130,2013-04-08 00:15:00
8:35 PM,48.2,30.2,50,29.88,10.0,SE,12.7,-,N/A,,Clear,140,2013-04-08 00:35:00
8:55 PM,46.4,30.2,53,29.88,10.0,SE,16.1,-,N/A,,Clear,130,2013-04-08 00:55:00
9:15 PM,46.4,30.2,53,29.89,10.0,SE,13.8,23.0,N/A,,Scattered Clouds,130,2013-04-08 01:15:00
9:55 PM,46.4,30.2,53,29.89,10.0,ESE,12.7,18.4,N/A,,Mostly Cloudy,120,2013-04-08 01:55:00
10:15 PM,46.4,30.2,53,29.90,10.0,ESE,11.5,-,N/A,,Mostly Cloudy,120,2013-04-08 02:15:00
10:35 PM,46.4,32.0,57,29.89,10.0,ESE,8.1,-,N/A,,Overcast,110,2013-04-08 02:35:00
10:55 PM,48.2,33.8,58,29.89,10.0,East,3.5,-,N/A,,Overcast,90,2013-04-08 02:55:00
11:15 PM,50.0,33.8,54,29.90,10.0,ESE,5.8,-,N/A,,Overcast,120,2013-04-08 03:15:00
11:35 PM,51.8,33.8,50,29.91,10.0,SW,3.5,-,N/A,,Overcast,230,2013-04-08 03:35:00
11:55 PM,53.6,35.6,51,29.91,10.0,WSW,12.7,20.7,N/A,,Overcast,240,2013-04-08 03:55:00